HIMAWARI-8

Last updated on Sat Jul 05 2025 00:02:21 GMT+0000 (Coordinated Universal Time)

1 40267U 14060A 25185.66464257 -.00000261 00000+0 00000+0 0 9999 2 40267 0.0134 94.1502 0000981 26.3180 182.3663 1.00271485 39388
UTC large
Height (km)
Speed (km/s)
/
Latitude / Longitude
Inclination (degrees)
Orbital Period (minutes)
Azimuth
Elevation
Range (km)
Doppler Factor

Next 0 passes for location: London (51.5072 / 0.1276)

Sorry there are no passes over London.